Terminal Aerodrome Forecast
Issued by NWS Wilmington, OH

Current Version | Previous Version | Graphics & Text | Print | Product List | Glossary On
Versions: 1 2 3 4 5 6 7 8 9 10 11 12 13 14 15 16 17 18 19 20 21 22 23 24 25 26 27
950
FTUS41 KILN 140859 AAA
TAFCVG
TAF AMD
KCVG 140859Z 1409/1512 00000KT P6SM BKN035
     FM141000 00000KT P6SM FEW025
     FM141600 12005KT P6SM FEW025 BKN200
     FM150800 15007KT 2SM -SN OVC025=

USA.gov is the U.S. government's official web portal to all federal, state and local government web resources and services.